Date,TemperatureHighF,TemperatureAvgF,TemperatureLowF,DewpointHighF,DewpointAvgF,DewpointLowF,HumidityHigh,HumidityAvg,HumidityLow,PressureMaxIn,PressureMinIn,WindSpeedMaxMPH,WindSpeedAvgMPH,GustSpeedMaxMPH,PrecipitationSumIn
2013-1-22,12,11,9,0,-1,-3,59,56,53,30.34,30.30,14,9,20,0.00
2013-1-23,23,16,10,14,7,-1,85,69,57,30.36,30.08,17,8,22,0.00
2013-1-24,21,13,4,9,3,-4,72,64,54,30.61,30.29,11,6,15,0.00
2013-1-25,33,23,17,21,15,7,87,71,56,30.28,29.92,17,10,24,0.00
2013-1-26,27,19,9,16,10,4,83,69,54,30.35,30.16,9,4,14,0.00
2013-1-27,38,30,25,37,25,15,100,83,65,30.30,29.79,14,7,21,0.38
2013-1-28,49,43,38,47,42,37,100,95,89,29.87,29.64,19,8,25,0.03
2013-1-29,64,56,41,60,54,40,100,93,85,29.65,29.31,23,11,35,0.69
2013-1-30,41,30,17,40,28,11,96,91,76,29.63,29.16,20,10,28,0.30
2013-1-31,18,10,2,12,4,-4,83,76,71,30.20,29.63,21,15,27,0.00
2013-2-1,16,6,-2,13,0,-7,87,76,68,30.36,30.12,16,10,22,0.00
2013-2-2,24,16,9,22,12,4,92,82,71,30.12,29.97,12,7,19,0.00
2013-2-3,23,19,12,18,14,7,92,81,70,30.02,29.91,18,7,25,0.00
2013-2-4,26,22,12,22,17,7,92,83,76,29.94,29.77,12,6,16,0.00
2013-2-5,31,25,11,28,20,7,90,83,76,30.05,29.76,17,7,22,0.00
2013-2-6,41,31,17,32,26,14,89,80,70,30.15,29.97,14,6,24,0.00
2013-2-7,36,33,29,34,31,27,95,93,84,30.00,29.80,11,6,16,0.56
2013-2-8,29,23,15,27,20,13,93,87,82,30.34,29.96,13,6,20,0.00
2013-2-9,32,29,22,29,25,20,92,87,82,30.34,29.97,15,8,22,0.00
2013-2-10,48,40,32,45,36,29,95,89,65,29.99,29.38,29,16,37,0.31
2013-2-11,40,32,27,33,25,21,79,75,71,30.01,29.44,31,21,45,0.01
2013-2-12,31,27,25,25,22,20,88,81,72,30.06,29.85,15,8,23,0.00
2013-2-13,41,34,26,33,29,23,90,81,72,29.85,29.64,13,7,18,0.00
2013-2-14,41,37,32,32,30,26,90,77,59,29.93,29.57,18,11,29,0.00
2013-2-15,32,26,18,30,16,9,90,67,48,30.16,29.93,16,9,24,0.00
2013-2-16,23,17,12,11,8,6,83,69,59,30.16,30.08,12,6,19,0.00
2013-2-17,32,22,8,23,14,5,87,72,58,30.16,29.86,17,7,22,0.00
2013-2-18,51,39,30,45,33,22,94,78,67,29.86,29.38,23,12,29,0.50
2013-7-10,83,76,63,68,64,60,90,66,56,29.90,29.81,9,4,15,0.00
2013-7-11,80,70,58,65,59,54,96,73,44,30.01,29.90,8,2,15,0.00
2013-7-12,83,70,56,65,58,53,93,69,42,30.06,29.96,5,1,15,0.00
2013-7-13,82,72,60,65,61,55,92,70,47,30.05,29.97,9,3,15,0.00
2013-7-14,86,77,65,72,68,61,90,75,59,30.08,30.02,9,3,15,0.00
2013-7-15,92,80,68,76,72,66,93,78,56,30.15,30.07,8,2,15,0.00
2013-7-16,89,82,73,77,74,71,94,80,65,30.18,30.12,7,3,15,0.00
2013-7-17,91,82,70,77,74,69,95,77,57,30.20,30.06,9,3,15,0.00
2013-7-18,92,82,72,78,74,70,94,77,55,30.07,29.86,11,5,18,0.00
2013-7-20,78,78,78,66,66,66,66,66,66,29.79,29.79,5,5,15,0.00
2013-8-2,83,83,83,68,68,68,59,59,59,29.75,29.75,6,6,6,0.00
2013-8-7,86,79,66,74,69,63,89,72,52,29.84,29.70,10,5,15,0.00
2013-8-8,79,70,63,66,63,59,94,80,59,29.92,29.84,8,2,14,0.00
2013-8-9,80,69,58,69,62,55,94,79,60,29.96,29.88,12,3,15,0.00
2013-8-10,80,68,57,63,59,55,96,74,45,30.04,29.96,7,2,14,0.00
2013-8-11,81,69,54,67,61,52,96,77,55,30.04,29.92,11,3,18,0.00
2013-8-12,82,74,64,70,65,59,86,76,59,29.93,29.77,11,5,15,0.00
2013-8-13,72,63,52,59,52,46,92,70,43,30.05,29.84,9,4,18,0.00
2013-8-14,74,61,46,57,51,45,94,73,44,30.14,30.04,7,1,14,0.00
2013-8-15,75,62,52,60,54,49,93,76,43,30.09,30.00,7,2,14,0.00
2013-8-16,80,66,50,62,55,49,96,71,40,30.08,30.03,9,2,14,0.00
2013-8-17,80,67,52,61,56,49,92,69,43,30.13,30.05,8,2,14,0.00
2013-8-18,81,68,52,62,57,50,94,72,46,30.11,30.00,7,1,14,0.00
2013-8-19,82,70,55,66,61,53,94,77,54,30.02,29.92,10,3,16,0.00
2013-8-20,84,75,65,70,66,62,92,75,56,30.00,29.91,12,3,20,0.00
2013-8-21,87,78,69,70,68,65,87,71,54,29.97,29.86,14,6,25,0.00
2013-8-22,78,71,65,68,67,63,95,87,72,30.06,29.88,9,4,14,0.01
2013-8-23,82,70,60,67,60,54,97,76,44,30.07,29.99,9,2,15,0.00
2013-8-24,83,72,59,70,64,54,92,76,62,30.14,30.05,9,4,14,0.00
2013-8-25,87,77,68,72,67,62,83,73,58,30.13,30.02,12,6,16,0.00
2013-8-26,89,80,71,76,70,64,83,73,57,30.04,29.88,12,6,16,0.00
2013-8-27,92,83,74,76,72,68,87,70,54,29.89,29.73,15,8,24,0.00
2013-8-28,87,80,72,78,72,67,89,76,66,29.91,29.74,11,5,18,0.00
2013-8-29,85,74,66,73,69,64,96,85,63,29.98,29.86,7,3,14,0.00
2013-8-30,95,80,68,77,71,66,95,77,45,29.86,29.64,13,5,24,0.00
2013-8-31,80,74,68,72,69,66,94,86,73,29.73,29.66,10,4,14,0.00
2013-9-1,87,74,61,75,67,59,97,81,58,29.73,29.61,8,2,14,0.00
2013-9-2,77,68,57,64,60,54,94,77,55,29.90,29.73,8,3,14,0.00
2013-9-3,77,63,50,62,55,49,96,77,47,30.00,29.90,5,1,14,0.00
2013-9-4,84,67,50,66,57,49,99,75,39,30.05,29.95,8,2,14,0.00
2013-9-5,78,68,60,66,61,53,95,80,62,30.12,30.00,9,4,14,0.00
2013-9-6,85,72,60,68,61,53,83,70,55,30.10,29.90,9,3,15,0.00
2013-9-7,88,76,67,70,66,62,88,72,50,29.90,29.76,12,4,18,0.00
2013-9-8,81,74,69,71,68,66,91,84,72,29.89,29.80,10,5,15,0.00
2013-9-9,95,81,68,76,71,66,95,75,53,29.82,29.69,12,6,20,0.00
2013-9-10,94,85,74,68,66,63,69,54,37,29.89,29.76,19,10,24,0.00
2013-9-11,88,79,70,72,68,65,90,70,54,29.93,29.86,11,5,18,0.00
2013-9-12,79,69,56,67,57,49,95,68,39,29.99,29.87,11,5,20,0.00
2013-9-13,68,57,46,50,43,35,90,64,30,30.11,29.99,8,3,15,0.00
2013-9-14,71,57,41,50,44,39,94,66,37,30.10,29.92,8,2,14,0.00
2013-9-15,60,57,54,57,53,46,94,85,63,30.08,29.87,6,3,14,0.00
2013-9-16,67,58,48,55,50,45,94,77,51,30.27,30.08,9,4,14,0.00
2013-9-17,69,58,44,57,52,42,95,80,63,30.23,29.99,10,4,14,0.00
2013-9-18,76,69,62,70,63,54,92,81,71,30.00,29.78,9,4,15,0.00
2013-9-19,92,79,68,72,69,64,91,74,49,29.82,29.63,18,7,25,0.00
2013-9-20,70,65,57,65,59,52,95,81,57,29.77,29.64,14,8,19,0.00
2013-9-21,67,57,48,53,49,46,95,76,51,29.87,29.75,8,4,19,0.00
2013-9-22,69,55,42,52,46,40,95,75,46,29.98,29.86,5,1,14,0.00
2013-9-23,71,58,46,52,48,44,91,73,47,30.01,29.90,8,4,14,0.00
2013-9-24,73,60,49,54,50,46,88,71,46,29.93,29.81,11,5,16,0.00
2013-9-25,75,61,48,54,51,46,94,73,40,29.87,29.80,8,3,14,0.00
2013-9-26,79,62,46,58,52,45,96,72,44,29.97,29.86,10,3,14,0.00
2013-9-27,82,68,55,56,52,48,86,60,31,30.04,29.91,10,4,18,0.00
2013-9-28,82,68,56,66,58,51,93,73,50,29.94,29.77,20,8,33,0.00
2013-9-29,71,58,49,56,48,41,97,72,34,29.99,29.87,7,2,14,0.00
2013-9-30,76,60,42,57,48,40,94,66,37,29.91,29.76,10,4,16,0.00
2013-10-1,82,69,59,65,62,56,95,79,55,29.86,29.77,15,7,25,0.00
2013-10-2,82,70,59,64,57,42,95,67,30,29.98,29.85,10,4,15,0.00
2013-10-3,79,70,64,70,66,60,96,88,71,29.85,29.71,11,5,19,0.00
2013-10-4,76,69,66,70,67,63,95,91,78,29.87,29.77,10,3,13,0.00
2013-10-5,77,69,58,71,66,52,95,88,79,29.81,29.65,12,5,18,0.00
2013-10-6,58,50,44,52,42,39,93,76,54,29.71,29.63,15,6,19,0.00
2013-10-7,70,54,42,49,45,40,96,76,43,29.99,29.70,13,5,21,0.00
2013-10-8,77,59,42,54,47,41,96,68,35,30.08,29.99,11,2,16,0.00
2013-10-9,74,60,48,50,46,42,89,64,34,30.13,30.01,9,3,12,0.00
2013-10-10,77,60,45,57,50,42,92,74,47,30.07,29.92,9,3,14,0.00
2013-10-11,78,65,55,60,55,51,90,72,46,29.94,29.80,13,6,18,0.00
2013-10-12,71,63,46,61,52,40,89,69,36,30.11,29.81,14,6,21,0.00
2013-10-13,64,50,38,45,38,33,93,69,32,30.32,30.11,7,1,12,0.00
2013-10-14,65,50,34,46,41,32,93,74,45,30.32,30.00,11,4,16,0.00
2013-10-15,68,56,47,62,50,42,95,79,64,30.00,29.66,16,8,24,0.00
2013-10-16,52,50,46,46,44,41,91,82,77,29.87,29.76,13,9,22,0.00
2013-10-17,58,48,40,46,42,37,95,83,47,29.85,29.75,12,5,19,0.00
2013-10-18,48,44,39,42,39,36,94,80,68,29.90,29.76,13,6,19,0.00
2013-10-19,54,44,37,39,36,33,87,74,46,29.87,29.71,16,6,24,0.00
2013-10-20,62,50,37,47,41,34,92,74,54,29.78,29.63,10,4,15,0.00
2013-10-21,56,43,32,45,31,24,81,65,44,29.91,29.72,17,8,26,0.00
2013-10-22,38,33,26,36,30,23,95,89,72,29.93,29.84,5,2,12,0.00
2013-10-23,43,37,31,33,30,27,95,78,60,29.98,29.88,10,4,15,0.05
2013-10-24,40,36,29,33,27,23,87,71,53,30.27,29.97,11,5,19,0.01
2013-10-25,52,40,26,33,27,22,89,64,41,30.35,29.97,17,8,26,0.00
2013-10-26,52,45,32,36,31,27,84,58,43,30.02,29.80,16,8,24,0.00
2013-10-27,55,41,27,34,30,24,92,67,40,30.01,29.88,13,4,20,0.00
2013-10-28,58,42,31,43,35,28,89,77,53,30.28,29.97,11,4,20,0.00
2013-10-29,57,46,33,46,38,31,93,77,54,30.27,30.04,10,5,12,0.00
2013-10-30,60,53,49,59,52,46,97,95,87,30.04,29.67,13,4,16,0.01
2013-10-31,63,57,44,62,55,40,97,93,88,29.67,29.17,16,8,24,0.01
2013-11-1,47,45,42,44,42,40,94,89,84,29.68,29.35,14,8,19,0.00
2013-11-2,48,41,34,40,36,31,95,83,62,30.08,29.68,8,2,16,0.00
2013-11-3,52,40,28,39,34,26,95,78,56,30.22,30.07,12,5,18,0.01
2013-11-4,57,50,42,45,41,36,81,72,57,30.15,29.97,17,9,26,0.00
2013-11-5,54,52,50,52,48,45,94,87,76,30.15,29.82,16,7,24,0.00
2013-11-6,57,46,34,55,42,27,94,86,72,30.12,29.68,18,10,32,0.00
2013-11-7,40,34,28,34,29,25,92,84,73,30.19,30.12,13,6,20,0.01
2013-11-8,49,40,26,36,31,24,93,73,47,30.26,29.80,19,7,25,0.02
2013-11-9,58,49,40,42,38,30,79,67,54,30.08,29.76,24,14,31,0.00
2013-11-10,47,40,30,33,31,27,88,70,54,30.30,30.08,10,6,15,0.00
2013-11-11,47,37,22,37,30,17,93,75,60,30.49,30.01,12,7,18,0.00
2013-11-12,31,24,18,20,16,14,83,74,57,30.68,30.49,9,4,16,0.03
2013-11-13,41,31,19,22,18,14,85,62,45,30.56,30.08,20,11,28,0.09
2013-11-14,52,42,33,31,25,19,61,51,40,30.09,29.84,19,12,30,0.63
2013-11-15,52,43,38,38,31,24,83,63,49,29.90,29.81,15,7,20,0.00
2013-11-16,59,52,39,56,49,35,93,90,81,29.82,29.44,21,13,34,0.23
2013-11-17,67,54,41,63,50,37,95,87,76,29.71,29.02,30,15,43,0.44
2013-11-18,42,38,31,37,30,25,88,74,57,30.20,29.71,19,10,30,0.00
2013-11-19,40,33,23,31,27,21,93,79,64,30.30,30.17,10,4,13,0.00
2013-11-20,40,36,31,37,32,27,91,83,73,30.18,29.99,13,8,20,0.18
2013-11-21,47,43,39,43,40,37,92,89,84,30.15,30.01,7,2,10,0.00
2013-11-22,41,34,24,39,30,21,93,85,72,30.42,30.15,10,6,19,0.00
2013-11-23,24,20,13,21,12,6,88,71,50,30.69,30.40,14,7,22,0.00
2013-11-24,28,18,9,12,8,5,85,66,42,30.69,30.32,13,6,18,0.00
2013-11-25,32,28,21,28,21,12,89,75,58,30.32,30.02,20,11,25,0.00
2013-11-26,32,27,15,27,21,6,89,76,62,30.16,29.98,11,7,20,0.00
2013-11-27,25,19,11,16,10,4,77,69,55,30.24,30.15,10,4,14,0.00
2013-11-28,32,25,16,19,16,13,89,69,58,30.45,30.11,11,4,14,0.00
2013-11-29,34,25,12,23,17,9,90,73,53,30.57,30.31,9,4,14,0.00
2013-11-30,50,38,28,35,29,23,87,71,55,30.31,29.97,15,6,20,0.00
2013-12-1,43,34,27,33,28,24,92,81,62,30.06,29.90,6,2,11,0.00
2013-12-2,41,37,33,35,32,29,92,83,71,29.90,29.62,11,6,14,0.03
2013-12-3,47,42,37,46,41,35,97,95,92,29.63,29.55,11,5,14,0.01
2013-12-4,53,46,31,52,45,28,97,95,86,29.66,29.39,22,8,28,0.00
2013-12-5,31,22,18,28,16,11,90,77,70,30.24,29.65,21,12,32,0.00
2013-12-6,18,15,10,11,8,4,79,74,66,30.53,30.22,8,5,12,0.00
2013-12-7,18,11,6,7,4,1,84,74,56,30.68,30.54,6,2,10,0.00
2013-12-8,22,19,12,20,14,6,92,83,70,30.57,29.92,11,5,16,0.00
2013-12-9,22,11,-4,20,7,-8,93,83,71,30.20,29.91,21,9,24,0.00
2013-12-10,20,12,-2,13,5,-7,83,74,66,30.26,29.98,22,10,32,0.00
2013-12-11,18,10,-5,15,4,-11,90,79,60,30.56,30.23,10,4,14,0.00
2013-12-12,20,10,-5,12,3,-10,92,75,63,30.53,30.18,17,6,22,0.00
2013-12-13,28,20,6,25,15,3,91,82,72,30.18,30.02,10,4,12,0.00
2013-12-14,29,25,18,28,23,15,95,91,88,30.03,29.88,11,6,14,0.01
2013-12-15,18,12,9,15,7,3,88,79,74,30.09,29.92,17,7,25,0.00
2013-12-16,18,14,7,15,10,2,92,82,65,30.10,29.97,7,3,9,0.00
2013-12-17,34,25,17,27,20,12,93,83,64,30.09,29.93,15,10,23,0.01
2013-12-18,40,26,12,32,18,9,89,74,58,30.11,29.76,14,6,22,0.00
2013-12-19,40,35,27,33,31,24,95,85,72,29.83,29.70,10,4,13,0.12
2013-12-20,34,31,26,32,30,25,100,95,93,29.77,29.66,9,3,18,0.15
2013-12-21,33,28,26,32,27,24,100,94,93,29.81,29.55,0,0,9,0.00
2013-12-22,33,27,19,32,25,17,95,92,89,30.10,29.54,9,1,19,0.00
2013-12-23,19,4,-4,17,0,-8,92,83,78,30.46,30.10,14,9,20,0.00
2013-12-24,18,3,-8,14,-1,-12,86,82,73,30.56,30.29,10,4,21,0.00
2013-12-25,26,23,18,24,20,14,93,87,78,30.30,30.07,14,9,21,0.01
2013-12-26,36,26,13,31,21,10,89,82,76,30.23,30.09,16,8,21,0.00
2013-12-27,42,33,23,33,28,21,93,81,69,30.22,30.03,16,7,22,0.12
2013-12-28,47,41,36,35,33,30,86,73,62,30.03,29.73,15,9,21,0.00
2013-12-29,42,25,5,32,20,-1,94,82,67,30.19,29.70,13,9,20,0.00
2013-12-30,6,3,-4,4,-3,-10,92,76,66,30.31,30.17,7,2,11,0.00
2013-12-31,11,6,-4,7,2,-8,87,85,83,30.34,30.18,9,3,15,0.00
2014-1-1,18,12,9,16,9,5,91,87,83,30.25,30.15,10,8,18,0.00
2014-1-2,14,8,-7,9,4,-11,92,82,76,30.42,30.14,10,6,18,0.00